Weather History for KLWD - December, 2013

Change the Weather History Date:

Tuesday, December 24, 2013

  Actual Average Record
Temperature  
Mean Temperature 3 °F 25 °F  
Max Temperature 21 °F 33 °F 57 °F (1982)
Min Temperature -16 °F 17 °F -19 °F (1983)
Degree Days  
Heating Degree Days 62 40  
Month to date heating degree days 1035 898  
Since 1 July heating degree days 2270 2146  
Cooling Degree Days 0 0  
Month to date cooling degree days 0 0  
Year to date cooling degree days 1093 946  
Moisture  
Dew Point 1 °F    
Average Humidity 79    
Maximum Humidity 95    
Minimum Humidity 63    
Precipitation  
Precipitation 0.00 in 0.04 in 0.84 in (1965)
Month to date precipitation 0.83 1.20  
Sea Level Pressure  
Sea Level Pressure 30.40 in    
Wind  
Wind Speed 9 mph (South)    
Max Wind Speed 17 mph    
Max Gust Speed 22 mph    
Visibility 8 miles    
Events      
T = Trace of Precipitation, MM = Missing Value Source: NWS Daily Summary

Daily Weather History Graph

Daily Weather History Graph

Search for Another Location

Airport or City:

Trip Planner

Search our weather history database for the weather conditions in past years. The results will help you decide how hot, cold, wet, or windy it might be!

Date:

Astronomy

Dec. 24, 2013 Rise Set
Actual Time 7:37 AM CST 4:53 PM CST
Civil Twilight 7:06 AM CST 5:24 PM CST
Nautical Twilight 6:31 AM CST 5:58 PM CST
Astronomical Twilight 5:58 AM CST 6:32 PM CST
Moon No Moon Rise 11:29 AM CST (12/24)
Length of Visible Light 10h 17m
Length of Day
9h 16m
Waning Gibbous, 58% of the Moon is Illuminated
Dec 24
Waning Gibbous
Dec 25
Last Quarter
Jan 1
New
Jan 7
First Quarter
Jan 15
Full

Hourly Weather History & Observations

Time (CST) Temp. Windchill Dew Point Humidity Pressure Visibility Wind Dir Wind Speed Gust Speed Precip Events Conditions
12:53 AM -8.0 °F -22.5 °F -13.0 °F 79% 30.63 in 10.0 mi West 6.9 mph - N/A   Clear
1:53 AM -11.0 °F -26.2 °F -14.1 °F 86% 30.63 in 10.0 mi West 6.9 mph - N/A   Clear
2:53 AM -9.9 °F -21.5 °F -14.1 °F 82% 30.61 in 10.0 mi North 4.6 mph - N/A   Clear
3:53 AM -6.0 °F -18.6 °F -11.9 °F 75% 30.59 in 10.0 mi North 5.8 mph - N/A   Clear
4:53 AM -13.0 °F -22.7 °F -18.0 °F 78% 30.59 in 10.0 mi SSW 3.5 mph - N/A   Clear
5:53 AM -13.0 °F -28.6 °F -15.0 °F 91% 30.58 in 10.0 mi South 6.9 mph - N/A   Clear
6:53 AM -9.0 °F -27.4 °F -13.0 °F 83% 30.57 in 10.0 mi South 10.4 mph - N/A   Clear
7:53 AM -9.0 °F -26.4 °F -11.9 °F 87% 30.56 in 10.0 mi South 9.2 mph - N/A   Clear
8:53 AM -9.0 °F -28.4 °F -11.9 °F 87% 30.56 in 10.0 mi SE 11.5 mph - N/A   Clear
9:53 AM -4.0 °F -21.2 °F -8.0 °F 83% 30.54 in 10.0 mi SSE 10.4 mph - N/A   Clear
10:53 AM 1.9 °F -13.8 °F -4.0 °F 76% 30.51 in 10.0 mi SSE 10.4 mph - N/A   Overcast
11:53 AM 5.0 °F -10.8 °F -4.0 °F 66% 30.48 in 10.0 mi SSE 11.5 mph 18.4 mph N/A   Overcast
12:53 PM 8.1 °F -6.2 °F -2.0 °F 64% 30.45 in 10.0 mi SSE 10.4 mph - N/A   Overcast
1:53 PM 9.0 °F -5.9 °F -0.9 °F 64% 30.38 in 10.0 mi SSE 11.5 mph - N/A   Overcast
2:48 PM 10.4 °F -4.8 °F 1.4 °F 67% 30.24 in 10.0 mi SE 12.7 mph - N/A   Overcast
2:53 PM 10.9 °F -4.1 °F 1.9 °F 67% 30.33 in 10.0 mi SE 12.7 mph - N/A   Overcast
3:27 PM 12.0 °F -2.7 °F 1.9 °F 64% 30.22 in 10.0 mi SE 12.7 mph - N/A   Overcast
3:53 PM 12.9 °F -0.9 °F 3.0 °F 65% 30.30 in 10.0 mi SE 11.5 mph 21.9 mph N/A   Overcast
4:53 PM 12.9 °F -2.8 °F 5.0 °F 71% 30.30 in 10.0 mi SSE 15.0 mph 20.7 mph N/A   Overcast
5:53 PM 14.0 °F 2.9 °F 6.1 °F 71% 30.31 in 10.0 mi South 8.1 mph - N/A   Overcast
6:53 PM 15.1 °F 4.2 °F 8.1 °F 74% 30.32 in 10.0 mi South 8.1 mph - N/A   Overcast
7:14 PM 16.0 °F 7.4 °F 9.0 °F 74% 30.23 in 10.0 mi South 5.8 mph - N/A   Overcast
7:53 PM 16.0 °F 6.3 °F 10.9 °F 81% 30.31 in 9.0 mi SSE 6.9 mph - N/A   Overcast
8:49 PM 15.8 °F 4.2 °F 12.2 °F 86% 30.22 in 5.0 mi South 9.2 mph - N/A   Overcast
8:53 PM 16.0 °F 6.3 °F 12.9 °F 88% 30.31 in 5.0 mi SSE 6.9 mph - N/A   Overcast
9:42 PM 17.1 °F 6.6 °F 15.1 °F 92% 30.21 in 3.0 mi South 8.1 mph - N/A   Overcast
9:53 PM 18.0 °F 6.9 °F 16.0 °F 92% 30.29 in 4.0 mi South 9.2 mph - N/A   Overcast
10:53 PM 19.0 °F 8.2 °F 17.1 °F 92% 30.27 in 3.0 mi South 9.2 mph - N/A   Overcast
11:15 PM 19.0 °F 8.2 °F 18.0 °F 96% 30.19 in 2.5 mi South 9.2 mph - N/A   Overcast
11:53 PM 19.9 °F 9.3 °F 19.0 °F 96% 30.25 in 2.5 mi SSW 9.2 mph - N/A   Overcast